Regional Weather Roundup
Issued by NWS Mt. Holly, NJ

Home | Current Version | Previous Version | Text Only | Print | Product List | Glossary On
Versions: 1 2 3 4 5 6 7 8 9 10 11 12 13 14 15 16 17 18 19 20 21 22 23 24 25 26 27 28 29 30 31 32 33 34 35 36 37 38 39 40 41 42 43 44 45 46 47 48 49 50
000
ASUS41 KPHI 061512
RWRPHI

REGIONAL WEATHER ROUNDUP
NATIONAL WEATHER SERVICE MOUNT HOLLY NJ
1000 AM EST TUE DEC 06 2016

NOTE:  "FAIR" INDICATES FEW OR NO CLOUDS BELOW 12,000 FEET WITH NO
SIGNIFICANT WEATHER AND/OR OBSTRUCTIONS TO VISIBILITY.

 * = STATION DOES NOT REPORT PRECIPITATION (E.G. RAIN, SNOW, ETC.)
        OR FOG.

NJZ015>026-061600-
SOUTHERN NEW JERSEY

CITY           SKY/WX    TMP DP  RH WIND       PRES   REMARKS
POMONA         CLOUDY    42  32  67 NE8       30.11F
WILDWOOD*      CLOUDY    44  36  73 NE8       30.09F
MILLVILLE      CLOUDY    42  32  67 E9        30.10F
WRIGHTSTOWN    CLOUDY    39  32  76 NE6       30.10F WCI  35
MOUNT HOLLY    CLOUDY    39  32  76 E3        30.13
TRENTON        CLOUDY    41  31  67 NE10      30.12F

$$
NJZ001>014-061600-
NORTHERN NEW JERSEY

CITY           SKY/WX    TMP DP  RH WIND       PRES   REMARKS
SUSSEX         CLOUDY    31  30  96 CALM      30.13S
ANDOVER*         N/A     33  31  92 CALM      30.13S
MORRISTOWN     PTSUNNY   34  32  93 CALM      30.15
NEWARK         CLOUDY    41  32  70 NE8       30.14F
TETERBORO      MOSUNNY   40  30  67 N5        30.14S
CALDWELL       CLOUDY    37  32  82 NE3       30.15S
SOMERVILLE     MOSUNNY   35  33  92 CALM      30.13S
ALLAIRE*       MOSUNNY   41  33  73 NE5       30.14F
TOMS RIVER*    CLOUDY    37  32  82 CALM      30.13F

$$
PAZ043-044-047-054-055-060>062-066>071-061600-
EASTERN PENNSYLVANIA

CITY           SKY/WX    TMP DP  RH WIND       PRES   REMARKS
PHILADELPHIA   CLOUDY    42  30  62 NE10      30.13S
NORTH PHILA    CLOUDY    41  32  70 NE9       30.15S
BLUE BELL*     CLOUDY    37  32  81 NE3       30.11S
DOYLESTOWN     CLOUDY    39  31  72 NE6       30.11F WCI  35
QUAKERTOWN*    CLOUDY    36  32  87 NE5       30.12S WCI  32
PERKASIE*      FAIR      37  32  81 NE6       30.12R WCI  33
POTTSTOWN      CLOUDY    37  30  75 NE6       30.12F WCI  32
LANCASTER      CLOUDY    38  33  82 E7        30.09S WCI  33
COATESVILLE    CLOUDY    39  30  70 NE6G14    30.09F WCI  35
READING        CLOUDY    36  31  82 N3        30.10S
ALLENTOWN      CLOUDY    35  30  82 NE3       30.13S
MOUNT POCONO   CLOUDY    33  26  75 E9        30.06S WCI  25
HAZLETON       MOSUNNY   34  28  80 E7        30.08F WCI  28
LEHIGHTON        N/A     32  32 100 CALM      30.13F FOG
WILKES BARRE   CLOUDY    33  28  81 N5        30.08F WCI  29

$$
DEZALL-MDZ008-012-015-019-020-061600-
DELAWARE AND EASTERN MARYLAND

CITY           SKY/WX    TMP DP  RH WIND       PRES   REMARKS
WILMINGTON     CLOUDY    43  32  65 E9        30.10F
DOVER          CLOUDY    42  35  74 NE14      30.08F
GEORGETOWN     CLOUDY    47  39  74 E8        30.08F
EASTON         CLOUDY    45  34  65 E6        30.12
ABERDEEN       CLOUDY    42  31  65 E7        30.10F
PATUXENT       LGT RAIN  43  37  79 E8        30.06F
OCEAN CITY     CLOUDY    50  41  71 E14G23    30.08S
WALLOPS ISLAND LGT RAIN  49  45  86 E9        30.08R
CAMBRIDGE      PTSUNNY   41  36  81 E5        30.07S
SALISBURY      LGT RAIN  46  40  79 E5        30.08S

$$
PAZ001-021-NYZ056-072-MDZ011-DCZ001-061600-
OTHER NEARBY LOCATIONS

CITY           SKY/WX    TMP DP  RH WIND       PRES   REMARKS
HARRISBURG     CLOUDY    37  32  82 E3        30.08F
STATE COLLEGE  SUNNY     34  28  80 CALM      30.01F
WILLIAMSPORT   MOSUNNY   42  29  59 SE3       30.08F
BINGHAMTON     MOSUNNY   30  28  92 SE7       30.05F WCI  23
NEW YORK CITY  MOSUNNY   44  29  55 VRB7      30.16S
BALTIMORE      LGTSLEET  42  33  70 E12       30.08F
WASHINGTON DC  LGT RAIN  44  35  70 NE7       30.10S

$$



USA.gov is the U.S. government's official web portal to all federal, state and local government web resources and services.